Portada
METAR-TAF:

METAR-TAF

Aeroports :

Mackay, Austràlia

latitud: 21-10-18S, longitud: 149-10-47E, altitud: 6 m

Observació

L'informe es va fer fa 21 minuts, a les 00:00 UTC
Vent 11 kt del Nord
Temperatura 30°C
Humitat 55%
Pressió 1014 hPa
Visibilitat 10 km o més

METAR: YBMK 010000Z AUTO 36011KT 9999 // NCD 30/20 Q1014

Hora: 10:21 (00:21 UTC)


TAF: manca

Observacions i pronòstics meteorològics de més de 4000 aeroports (METAR i TAF).

Les estacions disponibles són els punts grocs i vermells al mapa.

Posi el ratolí al punt desitjat per veure el nom de l'estació.

Feu clic per veure les observacions i els pronòstics meteorològics.

Per canviar el mapa: feu clic els botons verds amb una creu de color negre per apropar; al botó verd amb un guió per allunyar la imatge; o en les fletxes verdes per a mapes adjacents.


METAR-TAF: